24-05-2022, 00:00:08,    218,    0.0,    7.4,   0.00,   0.00, 1000.2,   93.4, -999.0
24-05-2022, 00:00:17,    217,    0.0,    7.5,   0.00,   0.00, 1000.2,   93.4, -999.0
24-05-2022, 00:00:27,    217,    0.0,    7.5,   0.00,   0.00, 1000.2,   93.5, -999.0
24-05-2022, 00:00:37,    199,    0.1,    7.5,   0.00,   0.00, 1000.2,   93.7, -999.0
24-05-2022, 00:00:47,    199,    0.0,    7.5,   0.00,   0.00, 1000.2,   93.5, -999.0
24-05-2022, 00:00:57,    199,    0.0,    7.5,   0.00,   0.00, 1000.2,   93.4, -999.0
24-05-2022, 00:01:07,    200,    0.0,    7.5,   0.00,   0.00, 1000.2,   93.5, -999.0
24-05-2022, 00:01:17,    200,    0.0,    7.4,   0.00,   0.00, 1000.2,   93.4, -999.0
24-05-2022, 00:01:27,    199,    0.0,    7.5,   0.00,   0.00, 1000.2,   93.4, -999.0
24-05-2022, 00:01:37,    200,    0.0,    7.4,   0.00,   0.00, 1000.2,   93.3, -999.0
24-05-2022, 00:01:47,    199,    0.0,    7.4,   0.00,   0.00, 1000.2,   93.5, -999.0
24-05-2022, 00:01:57,    199,    0.0,    7.5,   0.00,   0.00, 1000.2,   93.5, -999.0
24-05-2022, 00:02:07,    200,    0.0,    7.5,   0.00,   0.00, 1000.2,   93.4, -999.0
24-05-2022, 00:02:17,    199,    0.0,    7.5,   0.00,   0.00, 1000.2,   93.3, -999.0
24-05-2022, 00:02:27,    200,    0.0,    7.4,   0.00,   0.00, 1000.2,   93.4, -999.0
24-05-2022, 00:02:36,    199,    0.0,    7.4,   0.00,   0.00, 1000.2,   93.3, -999.0
24-05-2022, 00:02:47,    199,    0.0,    7.5,   0.00,   0.00, 1000.2,   93.3, -999.0
24-05-2022, 00:02:56,    199,    0.0,    7.5,   0.00,   0.00, 1000.2,   93.5, -999.0
24-05-2022, 00:03:06,    199,    0.0,    7.5,   0.00,   0.00, 1000.2,   93.4, -999.0
24-05-2022, 00:03:17,    200,    0.3,    7.4,   0.00,   0.00, 1000.3,   93.5, -999.0
24-05-2022, 00:03:26,    204,    0.2,    7.4,   0.00,   0.00, 1000.3,   93.5, -999.0
24-05-2022, 00:03:36,    208,    0.1,    7.4,   0.00,   0.00, 1000.3,   93.6, -999.0
24-05-2022, 00:03:46,    207,    0.4,    7.4,   0.00,   0.00, 1000.3,   93.4, -999.0
24-05-2022, 00:03:56,    208,    0.0,    7.4,   0.00,   0.00, 1000.3,   93.3, -999.0
24-05-2022, 00:04:06,    207,    0.0,    7.3,   0.00,   0.00, 1000.3,   93.2, -999.0
24-05-2022, 00:04:16,    209,    0.0,    7.3,   0.00,   0.00, 1000.2,   93.1, -999.0
24-05-2022, 00:04:26,    209,    0.2,    7.4,   0.00,   0.00, 1000.3,   93.4, -999.0
24-05-2022, 00:04:36,    244,    0.4,    7.5,   0.00,   0.00, 1000.3,   93.4, -999.0
24-05-2022, 00:04:46,    223,    0.1,    7.5,   0.00,   0.00, 1000.3,   93.4, -999.0
24-05-2022, 00:04:56,    224,    0.0,    7.4,   0.00,   0.00, 1000.2,   93.3, -999.0
24-05-2022, 00:05:06,    224,    0.0,    7.4,   0.00,   0.00, 1000.2,   93.3, -999.0
24-05-2022, 00:05:16,    224,    0.1,    7.4,   0.00,   0.00, 1000.3,   93.6, -999.0
24-05-2022, 00:05:26,    223,    0.9,    7.5,   0.00,   0.00, 1000.4,   93.8, -999.0
24-05-2022, 00:05:35,    223,    0.1,    7.3,   0.00,   0.00, 1000.3,   93.5, -999.0
24-05-2022, 00:05:46,    223,    0.0,    7.4,   0.00,   0.00, 1000.3,   93.2, -999.0
24-05-2022, 00:05:56,    223,    0.0,    7.3,   0.00,   0.00, 1000.2,   93.2, -999.0
24-05-2022, 00:06:05,    223,    0.0,    7.4,   0.00,   0.00, 1000.2,   93.2, -999.0
24-05-2022, 00:06:15,    223,    0.0,    7.4,   0.00,   0.00, 1000.2,   93.5, -999.0
24-05-2022, 00:06:26,    238,    0.5,    7.4,   0.00,   0.00, 1000.3,   93.7, -999.0
24-05-2022, 00:06:35,    238,    0.1,    7.5,   0.00,   0.00, 1000.2,   93.6, -999.0
24-05-2022, 00:06:45,    238,    0.0,    7.4,   0.00,   0.00, 1000.2,   93.5, -999.0
24-05-2022, 00:06:55,    238,    0.0,    7.4,   0.00,   0.00, 1000.2,   93.4, -999.0
24-05-2022, 00:07:05,    238,    0.0,    7.4,   0.00,   0.00, 1000.2,   93.4, -999.0
24-05-2022, 00:07:15,    238,    0.0,    7.4,   0.00,   0.00, 1000.2,   93.5, -999.0
24-05-2022, 00:07:25,    238,    0.0,    7.4,   0.00,   0.00, 1000.2,   93.4, -999.0
24-05-2022, 00:07:35,    238,    0.0,    7.4,   0.00,   0.00, 1000.2,   93.3, -999.0
24-05-2022, 00:07:45,    238,    0.0,    7.4,   0.00,   0.00, 1000.2,   93.2, -999.0
24-05-2022, 00:07:55,    238,    0.0,    7.3,   0.00,   0.00, 1000.2,   93.2, -999.0
24-05-2022, 00:08:05,    238,    0.0,    7.4,   0.00,   0.00, 1000.2,   93.4, -999.0
24-05-2022, 00:08:15,    238,    0.0,    7.4,   0.00,   0.00, 1000.2,   93.5, -999.0
24-05-2022, 00:08:25,    238,    0.0,    7.4,   0.00,   0.00, 1000.2,   93.6, -999.0
24-05-2022, 00:08:35,    238,    0.0,    7.4,   0.00,   0.00, 1000.2,   93.6, -999.0
24-05-2022, 00:08:44,    238,    0.0,    7.5,   0.00,   0.00, 1000.2,   93.5, -999.0
24-05-2022, 00:08:55,    238,    0.0,    7.5,   0.00,   0.00, 1000.2,   93.5, -999.0
24-05-2022, 00:09:05,    238,    0.0,    7.5,   0.00,   0.00, 1000.2,   93.5, -999.0
24-05-2022, 00:09:14,    238,    0.0,    7.4,   0.00,   0.00, 1000.2,   93.5, -999.0
24-05-2022, 00:09:24,    238,    0.0,    7.5,   0.00,   0.00, 1000.2,   93.6, -999.0
24-05-2022, 00:09:35,    238,    0.0,    7.5,   0.00,   0.00, 1000.2,   93.6, -999.0
24-05-2022, 00:09:44,    238,    0.0,    7.4,   0.00,   0.00, 1000.2,   93.6, -999.0
24-05-2022, 00:09:54,    239,    0.0,    7.5,   0.00,   0.00, 1000.2,   93.7, -999.0
24-05-2022, 00:10:04,    238,    0.0,    7.5,   0.00,   0.00, 1000.2,   93.6, -999.0
24-05-2022, 00:10:14,    238,    0.0,    7.5,   0.00,   0.00, 1000.2,   93.6, -999.0
24-05-2022, 00:10:24,    238,    0.0,    7.5,   0.00,   0.00, 1000.2,   93.6, -999.0
24-05-2022, 00:10:34,    238,    0.0,    7.5,   0.00,   0.00, 1000.2,   93.6, -999.0
24-05-2022, 00:10:44,    238,    0.0,    7.5,   0.00,   0.00, 1000.2,   93.6, -999.0
24-05-2022, 00:10:54,    238,    0.0,    7.5,   0.00,   0.00, 1000.2,   93.8, -999.0
24-05-2022, 00:11:04,    238,    0.0,    7.5,   0.00,   0.00, 1000.2,   93.7, -999.0
24-05-2022, 00:11:14,    238,    0.0,    7.5,   0.00,   0.00, 1000.2,   93.7, -999.0
24-05-2022, 00:11:24,    236,    0.0,    7.3,   0.00,   0.00, 1000.2,   93.7, -999.0
24-05-2022, 00:11:34,    236,    0.0,    7.5,   0.00,   0.00, 1000.2,   93.6, -999.0
24-05-2022, 00:11:44,    236,    0.0,    7.4,   0.00,   0.00, 1000.2,   93.6, -999.0
24-05-2022, 00:11:53,    211,    0.0,    7.4,   0.00,   0.00, 1000.2,   93.6, -999.0
24-05-2022, 00:12:04,    218,    1.0,    7.5,   0.00,   0.00, 1000.4,   93.7, -999.0
24-05-2022, 00:12:14,    213,    0.2,    7.4,   0.00,   0.00, 1000.3,   93.6, -999.0
24-05-2022, 00:12:23,    213,    0.0,    7.4,   0.00,   0.00, 1000.2,   93.3, -999.0
24-05-2022, 00:12:33,    213,    0.0,    7.4,   0.00,   0.00, 1000.2,   93.4, -999.0
24-05-2022, 00:12:44,    213,    0.0,    7.4,   0.00,   0.00, 1000.2,   93.3, -999.0
24-05-2022, 00:12:53,    213,    0.0,    7.4,   0.00,   0.00, 1000.2,   93.4, -999.0
24-05-2022, 00:13:03,    213,    0.0,    7.5,   0.00,   0.00, 1000.2,   93.5, -999.0
24-05-2022, 00:13:13,    213,    0.0,    7.4,   0.00,   0.00, 1000.2,   93.5, -999.0
24-05-2022, 00:13:23,    211,    0.0,    7.3,   0.00,   0.00, 1000.2,   93.5, -999.0
24-05-2022, 00:13:33,    212,    0.0,    7.3,   0.00,   0.00, 1000.2,   93.6, -999.0
24-05-2022, 00:13:43,    213,    0.0,    7.4,   0.00,   0.00, 1000.2,   93.6, -999.0
24-05-2022, 00:13:53,    213,    0.2,    7.4,   0.00,   0.00, 1000.3,   93.8, -999.0
24-05-2022, 00:14:03,    213,    0.0,    7.4,   0.00,   0.00, 1000.2,   93.5, -999.0
24-05-2022, 00:14:13,    212,    0.0,    7.3,   0.00,   0.00, 1000.2,   93.3, -999.0
24-05-2022, 00:14:23,    212,    0.0,    7.4,   0.00,   0.00, 1000.2,   93.4, -999.0
24-05-2022, 00:14:33,    212,    0.0,    7.4,   0.00,   0.00, 1000.2,   93.4, -999.0
24-05-2022, 00:14:43,    213,    0.0,    7.4,   0.00,   0.00, 1000.2,   93.4, -999.0
24-05-2022, 00:14:53,    213,    0.0,    7.3,   0.00,   0.00, 1000.2,   93.5, -999.0
24-05-2022, 00:15:03,    212,    0.0,    7.3,   0.00,   0.00, 1000.2,   93.5, -999.0
24-05-2022, 00:15:13,    213,    0.0,    7.3,   0.00,   0.00, 1000.2,   93.4, -999.0
24-05-2022, 00:15:23,    213,    0.0,    7.3,   0.00,   0.00, 1000.2,   93.5, -999.0
24-05-2022, 00:15:32,    213,    0.0,    7.3,   0.00,   0.00, 1000.2,   93.5, -999.0
24-05-2022, 00:15:42,    210,    1.0,    7.4,   0.00,   0.00, 1000.4,   93.8, -999.0
24-05-2022, 00:15:53,    211,    0.5,    7.4,   0.00,   0.00, 1000.3,   93.5, -999.0
24-05-2022, 00:16:02,    212,    0.1,    7.3,   0.00,   0.00, 1000.3,   93.3, -999.0
24-05-2022, 00:16:12,    212,    0.6,    7.4,   0.00,   0.00, 1000.4,   93.4, -999.0
24-05-2022, 00:16:22,    212,    0.0,    7.3,   0.00,   0.00, 1000.3,   93.1, -999.0
24-05-2022, 00:16:32,    212,    0.0,    7.2,   0.00,   0.00, 1000.3,   93.2, -999.0
24-05-2022, 00:16:42,    211,    0.5,    7.3,   0.00,   0.00, 1000.3,   93.5, -999.0
24-05-2022, 00:16:52,    211,    0.2,    7.3,   0.00,   0.00, 1000.3,   93.4, -999.0
24-05-2022, 00:17:02,    211,    0.0,    7.3,   0.00,   0.00, 1000.3,   93.2, -999.0
24-05-2022, 00:17:12,    211,    0.1,    7.4,   0.00,   0.00, 1000.3,   93.3, -999.0
24-05-2022, 00:17:22,    211,    0.1,    7.4,   0.00,   0.00, 1000.2,   93.4, -999.0
24-05-2022, 00:17:32,    211,    0.0,    7.3,   0.00,   0.00, 1000.2,   93.2, -999.0
24-05-2022, 00:17:42,    211,    0.0,    7.3,   0.00,   0.00, 1000.2,   93.2, -999.0
24-05-2022, 00:17:52,    215,    0.0,    7.3,   0.00,   0.00, 1000.2,   93.3, -999.0
24-05-2022, 00:18:02,    214,    0.3,    7.3,   0.00,   0.00, 1000.3,   93.4, -999.0
24-05-2022, 00:18:11,    214,    0.0,    7.2,   0.00,   0.00, 1000.2,   93.2, -999.0
24-05-2022, 00:18:22,    215,    0.0,    7.2,   0.00,   0.00, 1000.2,   93.1, -999.0
24-05-2022, 00:18:32,    215,    0.0,    7.3,   0.00,   0.00, 1000.3,   93.3, -999.0
24-05-2022, 00:18:41,    215,    0.2,    7.4,   0.00,   0.00, 1000.4,   93.5, -999.0
24-05-2022, 00:18:51,    215,    0.0,    7.4,   0.00,   0.00, 1000.3,   93.4, -999.0
24-05-2022, 00:19:02,    216,    0.0,    7.3,   0.00,   0.00, 1000.3,   93.2, -999.0
24-05-2022, 00:19:11,    218,    0.1,    7.3,   0.00,   0.00, 1000.3,   93.3, -999.0
24-05-2022, 00:19:21,    218,    0.0,    7.3,   0.00,   0.00, 1000.3,   93.3, -999.0
24-05-2022, 00:19:32,    218,    0.0,    7.2,   0.00,   0.00, 1000.2,   93.2, -999.0
24-05-2022, 00:19:41,    218,    0.0,    7.3,   0.00,   0.00, 1000.2,   93.2, -999.0
24-05-2022, 00:19:51,    218,    0.0,    7.3,   0.00,   0.00, 1000.2,   93.3, -999.0
24-05-2022, 00:20:01,    218,    0.0,    7.3,   0.00,   0.00, 1000.2,   93.3, -999.0
24-05-2022, 00:20:11,    218,    0.0,    7.4,   0.00,   0.00, 1000.2,   93.2, -999.0
24-05-2022, 00:20:21,    218,    0.0,    7.4,   0.00,   0.00, 1000.2,   93.4, -999.0
24-05-2022, 00:20:31,    219,    0.0,    7.4,   0.00,   0.00, 1000.2,   93.5, -999.0
24-05-2022, 00:20:41,    219,    0.0,    7.3,   0.00,   0.00, 1000.3,   93.8, -999.0
24-05-2022, 00:20:51,    219,    0.1,    7.3,   0.00,   0.00, 1000.3,   93.5, -999.0
24-05-2022, 00:21:01,    218,    0.0,    7.3,   0.00,   0.00, 1000.2,   93.2, -999.0
24-05-2022, 00:21:11,    218,    0.0,    7.3,   0.00,   0.00, 1000.2,   93.1, -999.0
24-05-2022, 00:21:20,    218,    0.0,    7.4,   0.00,   0.00, 1000.3,   93.4, -999.0
24-05-2022, 00:21:31,    218,    0.0,    7.3,   0.00,   0.00, 1000.2,   93.2, -999.0
24-05-2022, 00:21:41,    218,    0.0,    7.3,   0.00,   0.00, 1000.2,   93.2, -999.0
24-05-2022, 00:21:50,    218,    0.0,    7.3,   0.00,   0.00, 1000.2,   93.2, -999.0
24-05-2022, 00:22:01,    218,    0.0,    7.3,   0.00,   0.00, 1000.2,   93.2, -999.0
24-05-2022, 00:22:11,    218,    0.0,    7.3,   0.00,   0.00, 1000.2,   93.2, -999.0
24-05-2022, 00:22:20,    218,    0.0,    7.3,   0.00,   0.00, 1000.2,   93.2, -999.0
24-05-2022, 00:22:30,    218,    0.0,    7.4,   0.00,   0.00, 1000.2,   93.3, -999.0
24-05-2022, 00:22:41,    218,    0.0,    7.3,   0.00,   0.00, 1000.2,   93.2, -999.0
24-05-2022, 00:22:50,    218,    0.0,    7.3,   0.00,   0.00, 1000.2,   93.2, -999.0
24-05-2022, 00:23:00,    218,    0.0,    7.3,   0.00,   0.00, 1000.3,   93.4, -999.0
24-05-2022, 00:23:10,    218,    0.0,    7.4,   0.00,   0.00, 1000.2,   93.4, -999.0
24-05-2022, 00:23:20,    220,    0.3,    7.3,   0.00,   0.00, 1000.3,   93.2, -999.0
24-05-2022, 00:23:30,    219,    0.7,    7.4,   0.00,   0.00, 1000.4,   93.5, -999.0
24-05-2022, 00:23:40,    218,    0.2,    7.3,   0.00,   0.00, 1000.3,   93.3, -999.0
24-05-2022, 00:23:50,    217,    0.3,    7.3,   0.00,   0.00, 1000.3,   93.3, -999.0
24-05-2022, 00:24:00,    217,    0.8,    7.4,   0.00,   0.00, 1000.4,   93.4, -999.0
24-05-2022, 00:24:10,    217,    0.3,    7.3,   0.00,   0.00, 1000.3,   93.3, -999.0
24-05-2022, 00:24:20,    217,    0.4,    7.3,   0.00,   0.00, 1000.4,   93.5, -999.0
24-05-2022, 00:24:30,    217,    0.1,    7.3,   0.00,   0.00, 1000.3,   93.3, -999.0
24-05-2022, 00:24:40,    217,    0.2,    7.3,   0.00,   0.00, 1000.3,   93.4, -999.0
24-05-2022, 00:24:50,    217,    0.0,    7.2,   0.00,   0.00, 1000.2,   93.1, -999.0
24-05-2022, 00:24:59,    217,    0.0,    7.2,   0.00,   0.00, 1000.3,   93.1, -999.0
24-05-2022, 00:25:10,    219,    0.1,    7.3,   0.00,   0.00, 1000.3,   93.4, -999.0
24-05-2022, 00:25:20,    221,    0.4,    7.4,   0.00,   0.00, 1000.3,   93.6, -999.0
24-05-2022, 00:25:29,    222,    0.6,    7.3,   0.00,   0.00, 1000.4,   93.5, -999.0
24-05-2022, 00:25:39,    227,    0.9,    7.4,   0.00,   0.00, 1000.4,   93.5, -999.0
24-05-2022, 00:25:49,    228,    0.7,    7.4,   0.00,   0.00, 1000.4,   93.4, -999.0
24-05-2022, 00:25:59,    224,    0.1,    7.2,   0.00,   0.00, 1000.3,   93.3, -999.0
24-05-2022, 00:26:09,    224,    0.0,    7.3,   0.00,   0.00, 1000.2,   93.1, -999.0
24-05-2022, 00:26:19,    224,    0.0,    7.3,   0.00,   0.00, 1000.2,   93.1, -999.0
24-05-2022, 00:26:29,    225,    0.1,    7.3,   0.00,   0.00, 1000.3,   93.5, -999.0
24-05-2022, 00:26:39,    221,    0.6,    7.4,   0.00,   0.00, 1000.4,   93.5, -999.0
24-05-2022, 00:26:49,    220,    1.1,    7.4,   0.00,   0.00, 1000.4,   93.4, -999.0
24-05-2022, 00:26:59,    220,    0.7,    7.4,   0.00,   0.00, 1000.4,   93.5, -999.0
24-05-2022, 00:27:09,    220,    0.5,    7.4,   0.00,   0.00, 1000.4,   93.5, -999.0
24-05-2022, 00:27:19,    220,    0.0,    7.3,   0.00,   0.00, 1000.3,   93.1, -999.0
24-05-2022, 00:27:29,    220,    0.0,    7.3,   0.00,   0.00, 1000.2,   93.0, -999.0
24-05-2022, 00:27:39,    220,    0.0,    7.2,   0.00,   0.00, 1000.2,   93.0, -999.0
24-05-2022, 00:27:49,    220,    0.0,    7.3,   0.00,   0.00, 1000.2,   93.1, -999.0
24-05-2022, 00:27:59,    220,    0.0,    7.3,   0.00,   0.00, 1000.2,   93.1, -999.0
24-05-2022, 00:28:08,    220,    0.1,    7.3,   0.00,   0.00, 1000.3,   93.2, -999.0
24-05-2022, 00:28:19,    220,    0.0,    7.3,   0.00,   0.00, 1000.2,   93.2, -999.0
24-05-2022, 00:28:29,    220,    0.0,    7.1,   0.00,   0.00, 1000.2,   93.1, -999.0
24-05-2022, 00:28:38,    220,    0.0,    7.2,   0.00,   0.00, 1000.2,   93.0, -999.0
24-05-2022, 00:28:48,    220,    0.0,    7.3,   0.00,   0.00, 1000.2,   92.9, -999.0
24-05-2022, 00:28:59,    220,    0.0,    7.3,   0.00,   0.00, 1000.2,   93.0, -999.0
24-05-2022, 00:29:08,    219,    0.0,    7.3,   0.00,   0.00, 1000.2,   93.1, -999.0
24-05-2022, 00:29:18,    220,    0.0,    7.3,   0.00,   0.00, 1000.2,   93.1, -999.0
24-05-2022, 00:29:28,    219,    0.0,    7.3,   0.00,   0.00, 1000.2,   93.2, -999.0
24-05-2022, 00:29:38,    219,    0.0,    7.4,   0.00,   0.00, 1000.2,   93.1, -999.0
24-05-2022, 00:29:48,    219,    0.0,    7.4,   0.00,   0.00, 1000.2,   93.2, -999.0
24-05-2022, 00:29:58,    220,    0.0,    7.4,   0.00,   0.00, 1000.2,   93.2, -999.0
24-05-2022, 00:30:08,    220,    0.0,    7.4,   0.00,   0.00, 1000.2,   93.2, -999.0
24-05-2022, 00:30:18,    219,    0.0,    7.4,   0.00,   0.00, 1000.2,   93.3, -999.0
24-05-2022, 00:30:28,    219,    0.0,    7.3,   0.00,   0.00, 1000.2,   93.2, -999.0
24-05-2022, 00:30:38,    220,    0.0,    7.4,   0.00,   0.00, 1000.2,   93.1, -999.0
24-05-2022, 00:30:48,    219,    0.0,    7.3,   0.00,   0.00, 1000.2,   93.1, -999.0
24-05-2022, 00:30:58,    220,    0.0,    7.4,   0.00,   0.00, 1000.2,   93.1, -999.0
24-05-2022, 00:31:08,    220,    0.0,    7.4,   0.00,   0.00, 1000.2,   93.2, -999.0
24-05-2022, 00:31:17,    219,    0.0,    7.4,   0.00,   0.00, 1000.2,   93.2, -999.0
24-05-2022, 00:31:28,    218,    0.0,    7.4,   0.00,   0.00, 1000.2,   93.1, -999.0
24-05-2022, 00:31:38,    220,    0.0,    7.3,   0.00,   0.00, 1000.2,   93.1, -999.0
24-05-2022, 00:31:47,    220,    0.0,    7.3,   0.00,   0.00, 1000.2,   93.0, -999.0
24-05-2022, 00:31:58,    220,    0.0,    7.3,   0.00,   0.00, 1000.2,   93.0, -999.0
24-05-2022, 00:32:07,    219,    0.0,    7.4,   0.00,   0.00, 1000.2,   93.0, -999.0
24-05-2022, 00:32:17,    220,    0.0,    7.4,   0.00,   0.00, 1000.2,   93.1, -999.0
24-05-2022, 00:32:27,    220,    0.0,    7.4,   0.00,   0.00, 1000.2,   93.3, -999.0
24-05-2022, 00:32:37,    219,    0.0,    7.4,   0.00,   0.00, 1000.2,   93.2, -999.0
24-05-2022, 00:32:47,    219,    0.0,    7.4,   0.00,   0.00, 1000.2,   93.2, -999.0
24-05-2022, 00:32:57,    219,    0.0,    7.4,   0.00,   0.00, 1000.2,   93.3, -999.0
24-05-2022, 00:33:07,    219,    0.0,    7.4,   0.00,   0.00, 1000.2,   93.2, -999.0
24-05-2022, 00:33:17,    219,    0.0,    7.4,   0.00,   0.00, 1000.2,   93.3, -999.0
24-05-2022, 00:33:27,    219,    0.0,    7.4,   0.00,   0.00, 1000.2,   93.2, -999.0
24-05-2022, 00:33:37,    220,    0.0,    7.4,   0.00,   0.00, 1000.2,   93.2, -999.0
24-05-2022, 00:33:47,    220,    0.0,    7.4,   0.00,   0.00, 1000.2,   93.2, -999.0
24-05-2022, 00:33:57,    219,    0.0,    7.5,   0.00,   0.00, 1000.2,   93.1, -999.0
24-05-2022, 00:34:07,    219,    0.0,    7.4,   0.00,   0.00, 1000.2,   93.2, -999.0
24-05-2022, 00:34:17,    219,    0.0,    7.4,   0.00,   0.00, 1000.2,   93.1, -999.0
24-05-2022, 00:34:27,    219,    0.1,    7.4,   0.00,   0.00, 1000.3,   93.2, -999.0
24-05-2022, 00:34:37,    219,    0.0,    7.4,   0.00,   0.00, 1000.2,   93.1, -999.0
24-05-2022, 00:34:47,    219,    0.0,    7.4,   0.00,   0.00, 1000.2,   93.1, -999.0
24-05-2022, 00:34:56,    219,    0.0,    7.6,   0.00,   0.00, 1000.2,   93.1, -999.0
24-05-2022, 00:35:07,    219,    0.0,    7.4,   0.00,   0.00, 1000.2,   93.2, -999.0
24-05-2022, 00:35:17,    217,    0.2,    7.4,   0.00,   0.00, 1000.3,   93.3, -999.0
24-05-2022, 00:35:26,    216,    0.3,    7.5,   0.00,   0.00, 1000.4,   93.6, -999.0
24-05-2022, 00:35:36,    217,    0.1,    7.6,   0.00,   0.00, 1000.3,   93.4, -999.0
24-05-2022, 00:35:46,    217,    0.3,    7.5,   0.00,   0.00, 1000.4,   93.4, -999.0
24-05-2022, 00:35:56,    216,    0.0,    7.4,   0.00,   0.00, 1000.2,   93.1, -999.0
24-05-2022, 00:36:06,    216,    0.0,    7.4,   0.00,   0.00, 1000.2,   93.0, -999.0
24-05-2022, 00:36:16,    216,    0.0,    7.4,   0.00,   0.00, 1000.2,   93.1, -999.0
24-05-2022, 00:36:26,    216,    0.0,    7.4,   0.00,   0.00, 1000.2,   93.0, -999.0
24-05-2022, 00:36:36,    216,    0.0,    7.4,   0.00,   0.00, 1000.2,   93.0, -999.0
24-05-2022, 00:36:46,    216,    0.0,    7.4,   0.00,   0.00, 1000.2,   93.1, -999.0
24-05-2022, 00:36:56,    216,    0.0,    7.4,   0.00,   0.00, 1000.2,   93.0, -999.0
24-05-2022, 00:37:06,    216,    0.0,    7.4,   0.00,   0.00, 1000.2,   93.1, -999.0
24-05-2022, 00:37:16,    216,    0.0,    7.4,   0.00,   0.00, 1000.3,   93.3, -999.0
24-05-2022, 00:37:26,    217,    0.0,    7.3,   0.00,   0.00, 1000.2,   93.0, -999.0
24-05-2022, 00:37:36,    216,    0.0,    7.5,   0.00,   0.00, 1000.3,   93.0, -999.0
24-05-2022, 00:37:46,    216,    0.0,    7.3,   0.00,   0.00, 1000.2,   93.0, -999.0
24-05-2022, 00:37:55,    216,    0.0,    7.2,   0.00,   0.00, 1000.2,   92.9, -999.0
24-05-2022, 00:38:05,    216,    0.0,    7.2,   0.00,   0.00, 1000.2,   92.9, -999.0
24-05-2022, 00:38:16,    216,    0.0,    7.4,   0.00,   0.00, 1000.2,   92.9, -999.0
24-05-2022, 00:38:25,    216,    0.0,    7.3,   0.00,   0.00, 1000.2,   93.0, -999.0
24-05-2022, 00:38:35,    216,    0.0,    7.4,   0.00,   0.00, 1000.2,   93.0, -999.0
24-05-2022, 00:38:45,    216,    0.0,    7.4,   0.00,   0.00, 1000.2,   93.0, -999.0
24-05-2022, 00:38:55,    216,    0.0,    7.4,   0.00,   0.00, 1000.2,   93.1, -999.0
24-05-2022, 00:39:05,    216,    0.0,    7.4,   0.00,   0.00, 1000.2,   93.1, -999.0
24-05-2022, 00:39:15,    216,    0.0,    7.4,   0.00,   0.00, 1000.2,   93.2, -999.0
24-05-2022, 00:39:25,    216,    0.0,    7.4,   0.00,   0.00, 1000.2,   93.2, -999.0
24-05-2022, 00:39:35,    216,    0.0,    7.4,   0.00,   0.00, 1000.2,   93.2, -999.0
24-05-2022, 00:39:45,    216,    0.0,    7.4,   0.00,   0.00, 1000.2,   93.1, -999.0
24-05-2022, 00:39:55,    216,    0.0,    7.4,   0.00,   0.00, 1000.2,   93.0, -999.0
24-05-2022, 00:40:05,    216,    0.0,    7.3,   0.00,   0.00, 1000.2,   93.0, -999.0
24-05-2022, 00:40:15,    216,    0.0,    7.5,   0.00,   0.00, 1000.2,   93.0, -999.0
24-05-2022, 00:40:25,    216,    0.0,    7.4,   0.00,   0.00, 1000.2,   93.1, -999.0
24-05-2022, 00:40:35,    217,    0.0,    7.4,   0.00,   0.00, 1000.2,   93.0, -999.0
24-05-2022, 00:40:45,    216,    0.0,    7.4,   0.00,   0.00, 1000.2,   93.1, -999.0
24-05-2022, 00:40:55,    217,    0.0,    7.4,   0.00,   0.00, 1000.2,   93.0, -999.0
24-05-2022, 00:41:04,    216,    0.0,    7.3,   0.00,   0.00, 1000.2,   93.1, -999.0
24-05-2022, 00:41:14,    216,    0.0,    7.4,   0.00,   0.00, 1000.2,   93.0, -999.0
24-05-2022, 00:41:25,    216,    0.2,    7.5,   0.00,   0.00, 1000.3,   93.4, -999.0
24-05-2022, 00:41:34,    216,    0.2,    7.5,   0.00,   0.00, 1000.3,   93.4, -999.0
24-05-2022, 00:41:44,    216,    0.0,    7.5,   0.00,   0.00, 1000.2,   93.2, -999.0
24-05-2022, 00:41:55,    216,    0.0,    7.4,   0.00,   0.00, 1000.3,   93.1, -999.0
24-05-2022, 00:42:04,    216,    0.0,    7.5,   0.00,   0.00, 1000.2,   93.1, -999.0
24-05-2022, 00:42:14,    216,    0.0,    7.3,   0.00,   0.00, 1000.2,   93.1, -999.0
24-05-2022, 00:42:24,    215,    0.0,    7.4,   0.00,   0.00, 1000.2,   93.2, -999.0
24-05-2022, 00:42:34,    216,    0.0,    7.4,   0.00,   0.00, 1000.2,   93.1, -999.0
24-05-2022, 00:42:44,    216,    0.0,    7.4,   0.00,   0.00, 1000.2,   93.1, -999.0
24-05-2022, 00:42:54,    216,    0.0,    7.4,   0.00,   0.00, 1000.2,   93.0, -999.0
24-05-2022, 00:43:04,    216,    0.0,    7.4,   0.00,   0.00, 1000.2,   93.1, -999.0
24-05-2022, 00:43:14,    215,    0.0,    7.5,   0.00,   0.00, 1000.2,   93.0, -999.0
24-05-2022, 00:43:24,    216,    0.0,    7.5,   0.00,   0.00, 1000.2,   93.1, -999.0
24-05-2022, 00:43:34,    216,    0.0,    7.5,   0.00,   0.00, 1000.2,   93.1, -999.0
24-05-2022, 00:43:44,    217,    0.0,    7.5,   0.00,   0.00, 1000.2,   93.1, -999.0
24-05-2022, 00:43:54,    216,    0.0,    7.4,   0.00,   0.00, 1000.2,   93.1, -999.0
24-05-2022, 00:44:04,    216,    0.0,    7.6,   0.00,   0.00, 1000.2,   93.2, -999.0
24-05-2022, 00:44:13,    216,    0.0,    7.4,   0.00,   0.00, 1000.2,   93.1, -999.0
24-05-2022, 00:44:24,    216,    0.0,    7.4,   0.00,   0.00, 1000.2,   93.0, -999.0
24-05-2022, 00:44:34,    216,    0.0,    7.4,   0.00,   0.00, 1000.2,   93.1, -999.0
24-05-2022, 00:44:43,    216,    0.0,    7.4,   0.00,   0.00, 1000.2,   93.1, -999.0
24-05-2022, 00:44:53,    216,    0.0,    7.4,   0.00,   0.00, 1000.2,   93.0, -999.0
24-05-2022, 00:45:04,    216,    0.0,    7.4,   0.00,   0.00, 1000.2,   93.1, -999.0
24-05-2022, 00:45:13,    216,    0.0,    7.5,   0.00,   0.00, 1000.2,   93.1, -999.0
24-05-2022, 00:45:23,    216,    0.1,    7.4,   0.00,   0.00, 1000.3,   93.2, -999.0
24-05-2022, 00:45:33,    216,    0.1,    7.5,   0.00,   0.00, 1000.2,   93.2, -999.0
24-05-2022, 00:45:43,    215,    0.0,    7.4,   0.00,   0.00, 1000.2,   93.0, -999.0
24-05-2022, 00:45:53,    216,    0.0,    7.4,   0.00,   0.00, 1000.2,   93.0, -999.0
24-05-2022, 00:46:03,    216,    0.0,    7.5,   0.00,   0.00, 1000.2,   93.1, -999.0
24-05-2022, 00:46:13,    216,    0.0,    7.5,   0.00,   0.00, 1000.3,   93.4, -999.0
24-05-2022, 00:46:23,    216,    0.1,    7.5,   0.00,   0.00, 1000.3,   93.3, -999.0
24-05-2022, 00:46:33,    215,    0.6,    7.5,   0.00,   0.00, 1000.3,   93.4, -999.0
24-05-2022, 00:46:43,    216,    0.2,    7.5,   0.00,   0.00, 1000.3,   93.3, -999.0